Dewpoint
-7 -6 -6 -5 -5 -4 -4 -3 -3 -1 2 5 7 8 7 7 7 6 8 10 8 7 8 7 5 7 8 8 8 8 7 6 3 -3 -10 -17 -12 -6
-7 -7 -6 -5 -5 -4 -3 -3 -2 -1 1 3 6 6 5 5 6 7 10 9 9 7 8 7 5 7 8 8 8 8 8 7 7 3 -4 -14 -18 -14
-7 -7 -6 -5 -5 -4 -3 -2 -1 0 1 2 6 5 5 7 10 10 10 9 10 8 8 7 6 5 7 8 8 8 8 8 8 6 4 -4 -16 -19
-8 -7 -6 -6 -5 -4 -3 -2 -1 -0 0 2 6 5 5 6 9 11 9 10 10 9 7 7 7 5 6 8 9 9 8 9 8 8 7 3 -7 -14
-8 -7 -7 -6 -6 -5 -3 -2 -1 0 1 3 5 6 7 8 8 10 11 11 9 8 6 6 7 8 6 6 8 9 9 9 9 9 8 7 3 -6
-8 -7 -7 -6 -6 -6 -4 -2 -1 1 1 2 6 6 7 8 9 9 9 9 10 10 9 8 8 8 8 6 7 8 9 9 9 9 9 8 7 4
-7 -7 -7 -6 -6 -6 -5 -3 -1 -0 0 2 4 5 6 7 8 8 8 8 8 8 10 10 9 9 9 9 7 7 9 10 9 9 9 9 8 7
-7 -7 -7 -6 -6 -6 -5 -5 -3 -1 -1 1 2 3 4 4 7 8 8 8 8 8 10 11 9 9 9 10 9 8 7 9 10 10 10 9 9 9
-9 -7 -6 -6 -5 -5 -5 -4 -3 -3 -3 -1 1 2 3 5 5 7 7 8 9 9 10 10 10 10 10 9 10 9 8 8 10 10 10 10 9 10
-9 -8 -7 -6 -5 -5 -5 -5 -4 -4 -3 -2 -0 1 3 4 5 6 6 6 7 8 9 9 9 8 9 9 9 9 8 7 9 9 10 10 10 10
-11 -9 -8 -7 -5 -5 -4 -4 -4 -4 -3 -2 -1 0 2 4 4 5 6 6 6 7 8 9 9 9 8 9 9 9 8 8 8 9 10 10 10 10
-16 -12 -10 -8 -8 -6 -5 -5 -5 -4 -3 -1 -0 -0 1 3 3 4 4 5 5 5 6 7 9 9 10 10 10 10 9 9 9 10 9 9 10 10
-20 -17 -14 -10 -9 -8 -7 -6 -6 -4 -3 -3 -2 -1 -1 0 1 1 2 3 4 4 5 6 7 8 10 9 10 10 10 10 10 10 10 10 9 9
-21 -21 -19 -17 -12 -9 -9 -8 -7 -6 -5 -4 -4 -3 -3 -2 -1 -1 -0 0 1 2 4 5 5 7 7 7 6 6 9 10 10 9 10 11 10 10
-24 -24 -25 -26 -25 -17 -13 -11 -9 -9 -8 -7 -6 -5 -4 -3 -2 -1 -1 -0 1 2 2 3 4 5 5 3 4 4 5 5 7 8 8 9 10 10
-26 -28 -29 -29 -30 -29 -28 -22 -18 -15 -12 -10 -9 -8 -7 -5 -3 -3 -2 -1 -1 -1 0 0 1 2 2 2 1 1 2 2 3 4 5 5 6 7
-27 -28 -28 -29 -29 -29 -28 -29 -29 -29 -27 -25 -21 -18 -13 -9 -8 -8 -6 -5 -4 -3 -3 -2 -1 -1 -1 -0 -0 -0 -0 0 1 1 2 3 3 4
-30 -29 -29 -29 -29 -28 -29 -27 -28 -29 -29 -29 -31 -31 -30 -25 -17 -13 -10 -9 -8 -8 -7 -5 -3 -2 -2 -2 -3 -3 -2 -2 -1 -0 1 1 1 1
-31 -29 -29 -29 -29 -28 -28 -29 -28 -27 -29 -30 -30 -30 -31 -31 -30 -28 -26 -22 -15 -11 -10 -9 -8 -7 -6 -6 -7 -6 -5 -4 -4 -3 -2 -1 -1 -1
-31 -31 -30 -29 -29 -29 -29 -29 -29 -29 -29 -29 -29 -29 -30 -30 -30 -29 -29 -29 -28 -25 -23 -24 -17 -10 -8 -8 -14 -14 -8 -6 -6 -6 -5 -4 -4 -3
-31 -31 -31 -31 -31 -31 -30 -30 -31 -32 -33 -33 -34 -35 -36 -37 -37 -37 -34 -32 -31 -30 -28 -25 -22 -22 -22 -27 -30 -31 -25 -9 -7 -6 -7 -8 -7 -6
-33 -32 -31 -32 -32 -33 -34 -34 -36 -37 -39 -39 -38 -39 -39 -40 -39 -40 -40 -40 -39 -38 -37 -38 -39 -39 -38 -36 -35 -35 -32 -31 -18 -7 -7 -8 -8 -10
-34 -34 -34 -33 -33 -34 -35 -37 -39 -39 -39 -40 -39 -39 -39 -39 -39 -39 -39 -39 -39 -40 -40 -40 -40 -40 -39 -39 -39 -39 -40 -40 -40 -37 -31 -28 -26 -21
Wind_Speed
29 27 26 24 24 21 18 18 15 9 16 17 17 25 22 23 33 31 32 55 53 49 46 44 42 39 35 32 29 26 23 22 23 24 25 26 26 26
30 26 27 27 27 24 20 17 15 12 10 20 20 16 17 23 30 33 46 56 54 51 48 44 42 40 36 33 30 27 24 22 20 20 24 25 26 26
29 25 28 30 31 26 20 18 18 17 20 23 18 19 11 9 17 38 53 53 53 51 48 44 42 40 38 34 32 28 26 23 21 18 19 23 25 25
28 26 29 32 34 29 24 21 19 19 20 24 20 15 17 12 18 51 52 49 51 49 47 44 42 40 39 36 33 30 27 25 23 19 18 19 23 25
28 27 28 32 35 33 29 23 21 21 25 28 25 17 8 12 17 31 42 44 48 46 45 43 42 40 38 37 35 32 30 27 25 23 19 16 18 22
31 27 27 28 32 34 33 27 23 24 27 30 30 23 19 16 18 22 21 22 39 46 45 44 42 40 39 38 36 34 33 30 27 25 22 19 16 17
35 32 28 25 28 32 34 31 25 27 29 30 31 27 27 24 20 20 23 28 26 23 43 47 44 42 41 38 37 36 34 33 31 28 26 24 20 17
39 35 32 28 28 31 33 32 30 29 31 32 30 28 25 23 25 21 17 23 20 29 35 52 46 45 44 42 40 37 36 34 34 32 29 27 25 22
41 38 34 31 29 30 31 30 31 31 32 32 31 27 24 22 23 25 20 31 22 22 33 39 42 43 45 43 41 38 37 36 34 33 33 30 28 28
38 39 35 32 30 30 31 31 32 31 33 33 32 27 22 20 21 24 24 17 13 22 27 24 35 42 45 43 42 40 37 37 36 35 33 32 31 30
35 36 36 33 29 28 30 33 32 32 30 31 30 27 22 19 17 22 17 19 24 11 24 27 28 33 43 43 42 41 40 38 37 38 37 36 34 31
33 35 34 33 31 29 31 32 35 35 31 30 31 31 32 29 24 21 19 21 17 20 11 16 30 31 28 29 35 40 40 40 40 40 41 40 39 37
32 34 33 31 31 32 32 33 34 33 34 34 34 33 34 35 34 31 27 25 22 22 18 13 11 24 26 22 29 36 36 40 37 39 43 44 43 42
30 30 29 29 30 32 35 34 33 35 37 38 37 37 36 34 33 35 33 29 27 26 19 15 16 14 22 26 17 19 32 34 37 42 44 46 46 47
27 28 28 29 30 32 34 35 37 39 40 41 40 38 35 31 28 29 32 31 26 25 25 19 18 17 19 24 18 10 15 14 19 22 28 32 37 38
26 27 29 31 32 33 34 37 38 39 40 41 39 36 33 32 31 31 31 31 32 32 27 27 25 23 24 22 21 21 15 13 10 7 11 12 17 24
25 28 30 32 34 36 36 37 38 37 39 39 38 38 37 36 36 34 34 34 35 33 31 28 24 24 28 24 23 23 20 20 16 13 6 7 4 6
25 29 31 32 34 34 35 35 36 36 36 37 37 38 39 38 36 36 35 36 37 35 32 28 24 22 21 25 26 22 20 20 17 15 12 9 8 6
26 28 29 30 30 30 31 31 32 33 32 34 35 36 37 37 37 37 36 35 35 33 32 31 30 28 28 28 28 27 25 22 18 17 16 13 10 8
23 24 25 25 26 26 27 27 27 28 30 31 31 32 33 35 35 36 35 34 34 32 32 32 31 29 28 25 25 25 20 20 20 20 17 14 10 8
19 20 21 21 23 24 24 24 25 25 26 28 28 29 31 31 33 32 31 31 31 32 33 32 28 22 20 16 23 25 24 17 17 19 18 15 18 14
16 16 17 18 18 19 20 20 21 23 24 27 28 28 29 30 31 31 31 31 32 31 30 27 25 25 26 27 27 26 24 20 15 10 13 16 20 23
12 12 13 14 15 16 17 18 19 20 21 23 24 25 26 28 28 28 28 29 28 28 29 29 28 28 29 29 28 27 26 26 25 20 16 17 15 12
Wind_Direction
16 19 24 28 29 30 26 32 33 30 52 89 145 195 212 223 233 237 226 205 202 201 199 198 197 195 194 192 192 191 189 189 193 195 197 202 203 203
21 25 31 31 31 32 32 42 47 62 60 67 113 172 217 224 254 224 193 197 201 201 199 198 199 197 197 196 196 196 196 194 196 199 199 203 206 208
25 30 33 35 32 34 39 48 57 72 74 70 94 160 185 233 198 182 191 194 198 201 200 199 200 200 199 200 199 200 200 201 200 202 206 206 206 208
28 33 34 36 34 37 43 54 61 67 75 80 103 168 221 268 133 180 187 192 196 200 201 201 201 201 202 203 204 204 204 205 206 205 208 211 209 208
35 37 35 38 33 38 45 56 61 68 85 94 96 116 157 150 129 139 184 190 195 197 202 204 205 204 204 205 208 209 208 210 210 210 209 212 213 212
41 43 40 40 40 39 46 52 63 71 84 88 102 104 111 123 154 147 165 160 191 199 202 206 206 208 208 208 209 212 212 213 214 213 213 213 216 216
43 47 48 48 49 49 48 51 60 68 75 82 91 89 91 101 125 145 179 200 179 198 208 207 207 208 212 213 213 214 216 215 215 216 217 216 217 219
40 45 49 51 51 55 57 56 57 62 65 71 76 77 75 80 91 116 169 189 186 211 205 205 208 212 212 214 214 216 215 219 219 218 218 221 221 220
42 41 49 52 54 57 59 62 63 62 63 64 68 68 70 76 86 98 130 171 184 173 188 203 206 212 215 216 216 216 218 218 221 224 224 223 226 226
46 41 46 50 55 58 63 64 65 64 62 64 65 62 69 83 83 96 107 105 141 189 192 194 216 219 218 219 218 218 221 222 222 223 225 225 227 231
49 48 47 50 54 60 65 68 71 73 75 75 74 73 79 88 92 94 103 93 76 150 176 192 197 209 221 222 221 220 221 223 226 227 226 227 228 229
53 53 53 55 58 59 62 66 68 67 74 80 81 73 73 80 84 85 83 78 80 57 124 147 179 189 195 217 227 223 222 226 228 231 233 233 232 233
54 53 53 57 62 64 65 68 72 75 76 77 76 75 70 68 69 69 71 71 67 59 50 80 120 174 180 154 201 214 218 224 229 233 233 237 236 236
58 58 59 60 63 68 68 69 71 73 74 74 73 69 68 67 67 70 71 69 70 65 61 53 54 89 152 139 131 169 200 220 224 231 231 233 232 236
63 65 67 66 65 67 69 70 70 70 69 68 67 67 69 73 76 75 75 78 78 77 67 70 63 74 93 95 96 118 134 152 188 193 201 215 222 226
68 67 67 69 68 68 68 66 67 68 68 69 71 72 74 73 73 73 72 73 77 75 76 71 72 77 78 79 78 74 81 72 99 141 151 174 184 197
70 71 69 68 67 66 67 67 66 67 69 70 70 69 69 70 70 70 74 71 69 69 69 69 69 70 71 74 70 63 60 57 53 65 94 120 133 191
63 64 66 64 64 63 63 65 67 66 67 69 69 67 67 68 67 67 68 68 68 66 63 63 67 70 63 54 49 45 42 44 40 39 46 54 61 46
63 63 61 61 63 64 64 63 66 67 67 67 68 68 67 65 65 63 64 67 65 61 59 57 57 59 61 55 38 33 34 32 28 31 27 27 27 19
62 63 64 65 64 65 66 65 66 69 68 68 68 67 65 64 64 63 61 61 64 61 59 55 53 51 52 48 46 44 35 34 29 26 22 23 16 349
64 66 65 65 64 63 62 62 63 63 68 69 67 67 67 67 66 65 63 63 62 60 57 54 56 55 57 48 48 45 45 38 28 28 18 13 9 359
62 64 65 67 68 67 65 62 63 64 66 70 69 69 68 66 65 63 63 60 59 59 57 55 50 47 44 41 37 30 27 33 47 36 24 18 11 1
61 62 63 62 63 66 69 69 69 70 69 69 70 67 66 66 66 65 61 60 58 56 53 50 46 44 43 40 33 28 22 19 13 11 14 11 0 343
Height
1434 1426 1419 1413 1407 1402 1399 1395 1394 1393 1393 1393 1400 1407 1413 1421 1428 1438 1447 1460 1472 1484 1494 1504 1513 1521 1528 1534 1540 1545 1550 1555 1559 1563 1567 1572 1577 1581
1436 1429 1423 1416 1410 1405 1401 1398 1395 1394 1396 1395 1399 1404 1413 1419 1419 1423 1437 1455 1469 1481 1491 1502 1510 1518 1526 1533 1539 1544 1549 1554 1558 1562 1565 1570 1575 1579
1439 1433 1427 1421 1415 1409 1405 1401 1399 1397 1396 1398 1399 1404 1416 1420 1418 1424 1437 1454 1466 1478 1489 1499 1508 1516 1523 1531 1537 1542 1548 1552 1557 1560 1564 1567 1571 1576
1443 1437 1431 1425 1419 1414 1409 1406 1404 1402 1402 1401 1407 1412 1418 1421 1420 1425 1439 1454 1465 1477 1487 1497 1505 1513 1521 1528 1535 1540 1546 1551 1555 1559 1562 1565 1568 1572
1446 1441 1435 1430 1424 1419 1414 1410 1409 1406 1405 1408 1411 1413 1420 1421 1421 1428 1442 1453 1465 1475 1485 1495 1503 1511 1518 1525 1532 1538 1543 1548 1553 1557 1561 1564 1567 1570
1450 1445 1441 1435 1429 1424 1420 1417 1414 1414 1413 1414 1414 1424 1423 1422 1424 1427 1436 1450 1463 1474 1483 1491 1499 1507 1514 1521 1528 1534 1540 1545 1550 1555 1559 1562 1565 1568
1453 1449 1445 1441 1436 1430 1425 1423 1422 1419 1419 1420 1422 1425 1424 1426 1427 1433 1443 1453 1461 1470 1478 1485 1494 1501 1509 1517 1523 1530 1536 1542 1547 1552 1556 1560 1563 1567
1459 1452 1448 1446 1442 1438 1434 1432 1431 1427 1426 1423 1423 1425 1429 1430 1431 1434 1441 1448 1458 1470 1471 1479 1488 1495 1503 1510 1517 1525 1531 1538 1543 1547 1552 1556 1560 1564
1468 1461 1455 1452 1449 1444 1441 1439 1436 1433 1432 1429 1428 1430 1432 1435 1436 1440 1447 1451 1456 1461 1467 1474 1483 1490 1498 1505 1513 1520 1527 1533 1538 1543 1548 1552 1556 1560
1475 1471 1464 1459 1456 1452 1450 1446 1442 1441 1438 1436 1435 1437 1438 1441 1442 1443 1448 1452 1453 1456 1462 1470 1478 1485 1492 1501 1509 1515 1522 1528 1533 1539 1543 1548 1551 1556
1483 1478 1474 1469 1465 1462 1458 1454 1452 1449 1447 1444 1442 1446 1446 1446 1447 1449 1451 1453 1454 1457 1461 1468 1474 1481 1487 1496 1504 1511 1517 1523 1529 1533 1538 1542 1546 1550
1491 1486 1482 1479 1475 1470 1466 1463 1459 1456 1455 1453 1452 1454 1453 1451 1452 1453 1454 1454 1456 1458 1460 1463 1470 1476 1484 1493 1498 1505 1512 1517 1522 1526 1530 1535 1539 1543
1500 1494 1491 1487 1484 1480 1476 1473 1469 1467 1463 1462 1459 1457 1457 1455 1456 1458 1458 1458 1459 1462 1464 1464 1464 1465 1471 1479 1488 1494 1500 1506 1510 1515 1521 1525 1530 1534
1507 1504 1501 1498 1493 1489 1484 1480 1475 1472 1470 1465 1464 1464 1464 1465 1466 1465 1463 1464 1464 1465 1467 1468 1467 1465 1466 1475 1484 1488 1488 1497 1500 1506 1510 1513 1518 1523
1515 1513 1511 1505 1500 1496 1493 1489 1485 1481 1476 1471 1471 1472 1474 1477 1477 1475 1472 1470 1470 1469 1472 1471 1471 1469 1470 1474 1479 1484 1485 1492 1496 1495 1498 1503 1506 1511
1523 1520 1515 1513 1510 1506 1501 1497 1494 1490 1487 1484 1486 1488 1489 1485 1483 1482 1480 1477 1476 1475 1477 1478 1476 1477 1477 1481 1486 1490 1490 1490 1492 1493 1492 1497 1498 1501
1529 1526 1522 1519 1515 1512 1510 1506 1503 1500 1497 1497 1497 1498 1496 1493 1492 1490 1486 1486 1484 1483 1484 1485 1486 1486 1487 1490 1490 1492 1493 1493 1492 1493 1494 1493 1494 1495
1533 1529 1527 1526 1520 1519 1517 1516 1513 1511 1510 1509 1506 1505 1504 1501 1500 1497 1495 1493 1493 1493 1494 1494 1494 1493 1493 1494 1495 1497 1496 1493 1494 1494 1495 1496 1494 1494
1538 1536 1531 1529 1528 1529 1526 1524 1522 1521 1519 1516 1514 1514 1512 1509 1505 1504 1504 1501 1501 1503 1502 1503 1502 1499 1498 1500 1504 1501 1500 1499 1498 1497 1496 1495 1497 1497
1543 1542 1541 1540 1539 1538 1534 1533 1532 1530 1526 1525 1524 1521 1519 1517 1514 1513 1512 1512 1511 1513 1510 1509 1508 1507 1506 1509 1509 1509 1506 1504 1503 1502 1500 1500 1500 1499
1548 1547 1546 1545 1544 1542 1542 1540 1537 1535 1533 1531 1529 1528 1526 1525 1522 1523 1523 1522 1520 1519 1517 1518 1518 1518 1516 1517 1512 1511 1511 1510 1509 1506 1502 1500 1498 1497
1553 1552 1551 1550 1549 1548 1546 1545 1543 1540 1539 1538 1537 1535 1533 1531 1530 1529 1527 1526 1525 1524 1525 1525 1524 1520 1517 1516 1517 1516 1515 1515 1514 1511 1509 1506 1502 1498
1557 1557 1555 1554 1553 1552 1550 1549 1548 1547 1545 1543 1543 1540 1539 1539 1536 1535 1534 1534 1532 1531 1529 1526 1526 1525 1522 1521 1520 1519 1517 1515 1512 1511 1510 1508 1507 1505